User: anonymous
Location: Fort Hays State University
(38.8712°N, 99.3432°W)
Time: 00:36:20
(UTC-05:00)
Language:

ALOS - Orbit

View from above orbital plane
View from above orbital plane
View from above satellite
View from above satellite

Ground track
Ground track

The orbit data is extracted from the following two-line orbital elements,

1 28931U 06002A   14203.80205883  .00000352  00000-0  80554-4 0    82
2 28931 097.9811 260.6248 0002262 088.7729 047.6158 14.61215394452526
Epoch (UTC): 22 July 2014 19:14:57
Eccentricity: 0.0002262
inclination: 97.9811°
perigee height: 687 km
apogee height: 691 km
right ascension of ascending node: 260.6248°
argument of perigee: 88.7729°
revolutions per day: 14.61215394
mean anomaly at epoch: 47.6158°
orbit number at epoch: 45252

The dashed part of the orbit path shows where the satellite is in the earth's shadow,  

DLR